Regional Weather Roundup
Issued by NWS Cleveland, OH

Home | Current Version | Previous Version | Graphics & Text | Print | Product List | Glossary On
Versions: 1 2 3 4 5 6 7 8 9 10 11 12 13 14 15 16 17 18 19 20 21 22 23 24 25 26 27 28 29 30 31 32 33 34 35 36 37 38 39 40 41 42 43 44 45 46 47 48 49 50
000
ASUS41 KCLE 241702
RWRCLE
OHIO REGIONAL WEATHER ROUNDUP
NATIONAL WEATHER SERVICE CLEVELAND, OH
100 PM EDT SUN MAY 24 2015

NOTE: "FAIR" INDICATES FEW OR NO CLOUDS BELOW 12,000 FEET WITH NO
SIGNIFICANT WEATHER AND/OR OBSTRUCTIONS TO VISIBILITY.

OHZ001>008-015>018-024>027-034-035-043-044-241800-
   NORTHWEST OHIO

CITY           SKY/WX    TMP DP  RH WIND       PRES   REMARKS
DEFIANCE       CLOUDY    78  54  43 S10       30.22F
FINDLAY        CLOUDY    80  52  37 S15       30.23F
TOLEDO EXPRESS PTSUNNY   77  49  37 S8        30.23F
TOLEDO EXEC    MOSUNNY   79  48  33 S10       30.24F
LIMA           CLOUDY    77  54  44 SW13G20   30.24F
$$

OHZ009>014-019>023-028>033-038-089-241800-
   NORTHEAST OHIO

CITY           SKY/WX    TMP DP  RH WIND       PRES   REMARKS
CLE-HOPKINS    MOSUNNY   81  47  30 SW12      30.29F
CLE-LAKEFRONT  SUNNY     74  53  48 NW5       30.26F
CUY CO. ARPT   PTSUNNY   81  50  34 SW14      30.30S
LORAIN-ELYRIA  MOSUNNY   80  43  26 SW14      30.27F
ASHTABULA      SUNNY     77  48  35 SW10G18   30.29F
AKRON-CANTON   MOSUNNY   79  46  31 S13       30.30F
WOOSTER        SUNNY     80  41  24 S13G22    30.30F
MANSFIELD      MOSUNNY   78  49  35 S9        30.29F
YOUNGSTOWN     MOSUNNY   77  44  30 SW10      30.31F
$$

OHZ042-051>053-060>062-070>072-077>081-241800-
  SOUTHWEST OHIO

CITY           SKY/WX    TMP DP  RH WIND       PRES   REMARKS
CINC-COVINGTON PTSUNNY   79  54  41 S12G17    30.25F
CINC-LUNKEN    PTSUNNY   80  55  42 S14       30.25F
HAMILTON       PTSUNNY   81  54  39 SW8       30.25F
DAYTON         PTSUNNY   77  54  44 SW10      30.26F
WRIGHT-PAT AFB MOSUNNY   78  54  42 SW10      30.25F
DAYTON GENERAL PTSUNNY   76  54  46 NW7       30.25F
WILMINGTON     PTSUNNY   80  50  34 W12       30.26F
$$

OHZ036-037-039>041-045>050-054>059-063>069-073>076-082>088-241800-
  CENTRAL AND SOUTHEAST OHIO

CITY           SKY/WX    TMP DP  RH WIND       PRES   REMARKS
COLUMBUS       PTSUNNY   79  51  37 S8        30.27F
OSU AIRPORT    MOSUNNY   79  51  37 S8        30.27F
BOLTON FIELD   PTSUNNY   81  54  39 SE10      30.27F
RICKENBACK AFB NOT AVBL
NEWARK         SUNNY     78  50  37 VRB5      30.28F
MARION         CLOUDY    80  48  32 S15       30.27F
LANCASTER      MOSUNNY   81  50  33 S12       30.29F
ZANESVILLE     SUNNY     77  46  33 S7        30.30F
NEW PHILLY     SUNNY     80  44  27 VRB3      30.30F
$$



USA.gov is the U.S. government's official web portal to all federal, state and local government web resources and services.